weather.gov     
National Weather Service

Regional Weather Roundup
NWS Homepage
This page is being discontinued on March 12, 2014.
The same data is available at this site. Please update your bookmarks.
Thank you, and we apologize for the inconvenience.
Please send an email to SR-SRH.Webmaster@noaa.gov with any concerns.


Current Version
Previous Version:    01  02  03  04  05  06  07  08  09  10  11  12  13  14  15  16  17  18  19  20  21  22  23  24  25  26  27  28  29  30  
   31  32  33  34  35  36  37  38  39  40  41  42  43  44  45  46  47  48  49  50  51  52  53  
[Printable]
691
ASUS41 KGYX 240810
RWRGYX
WEATHER ROUNDUP FOR MAINE AND NEW HAMPSHIRE
NATIONAL WEATHER SERVICE GRAY ME
400 AM EDT FRI OCT 24 2014

MEZ002-005-006-010-012-015-018-020-021-024-026-027-029-240900-
MAINE

CITY           SKY/WX    TMP DP  RH WIND       PRES   REMARKS
PORTLAND       RAIN      49  46  90 N14       29.67S FOG
SANFORD        CLOUDY    46  43  87 N12G20    29.67S
BAR HARBOR     CLOUDY    50  50 100 N12       29.64S
WISCASSET      LGT RAIN  47  45  93 VRB6      29.66F
ROCKLAND       CLOUDY    50  46  87 N13G22    29.62S
FRYEBURG       LGT RAIN  48  45  89 NW3       29.72R
LEWISTONAUBURN CLOUDY    46  43  87 N15       29.68S
AUGUSTA        CLOUDY    46  44  93 N15       29.69F
WATERVILLE     CLOUDY    46  41  81 N16       29.67F
BANGOR         LGT RAIN  47  45  93 N14       29.69F
GREENVILLE       N/A     40  38  93 N10       29.73S
MILLINOCKET    LGT RAIN  44  41  89 N9        29.77S
HOULTON        LGT RAIN  44  42  93 N6        29.76S FOG
PRESQUE ISLE   CLOUDY    41  36  81 N17       29.79F
FRENCHVILLE    CLOUDY    43  30  60 N10G20    29.85F
CARIBOU        LGT RAIN  41  38  89 N10       29.81F
$$

NHZ002-005-008-009-011-012-014-240900-
NEW HAMPSHIRE

CITY           SKY/WX    TMP DP  RH WIND       PRES   REMARKS
PORTSMOUTH     CLOUDY    49  46  90 N13       29.66R
ROCHESTER      LGT RAIN  48  46  93 N12       29.67S
NASHUA         CLOUDY    50  49  96 NW7       29.70S
MANCHESTER     LGT RAIN  50  46  86 N9        29.68S FOG
CONCORD        LGT RAIN  48  47  96 NW9       29.70S
LACONIA        CLOUDY    48  46  93 NW6       29.69S
PLYMOUTH       CLOUDY    47  47 100 CALM      29.72R
BERLIN         LGT RAIN  44  42  93 N3        29.73F
WHITEFIELD     LGT RAIN  45  43  93 CALM      29.74S
JAFFREY        LGT RAIN  46  45  96 VRB5      29.71S
LEBANON        CLOUDY    47  42  83 NW8       29.74F
MT WASHINGTON  DRZL/FOG  34  34 100 N31         N/A  VSB 1/16WCI  20
$$

VTZ005-007-008-240900-
VERMONT

CITY           SKY/WX    TMP DP  RH WIND       PRES   REMARKS
ST JOHNSBURY     N/A     44  42  93 MISG      29.74F
MONTPELIER     LGT RAIN  41  41 100 N8        29.81R FOG
BURLINGTON     LGT RAIN  43  40  89 N12       29.84R
$$

MAZ007-012-024-CTZ003-RIZ002-NYZ038-NYZ072-240900-
SOUTHERN NEW ENGLAND AND NY

CITY           SKY/WX    TMP DP  RH WIND       PRES   REMARKS
BOSTON         LGT RAIN  47  47 100 N10       29.66S FOG
WORCESTER      CLOUDY    47  45  93 NW9       29.68S
NANTUCKET      LGT RAIN  54  52  93 N24G30    29.54S
PROVIDENCE     CLOUDY    50  47  89 N12       29.66S
HARTFORD       LGT RAIN  50  44  80 NW8       29.72S
ALBANY         DRIZZLE   46  44  93 N5        29.81F FOG
NEW YORK CITY  CLOUDY    52  44  74 NW17      29.77R
$$

ANZ081-ANZ082-ANZ150-NHZ014-MEZ023>029-240900-
COASTAL MARINE OBSERVATIONS

STATION/POSITION TIME  TEMP    WIND        PRES    WAVE
                       AIR SEA DIR/SP/G            HT/PER
                 (UTC) (F)     (DEG/KT/KT) (MB)    (FT/S)
MOUNT DESERT ROC 0700   54                 1001.1F
MATINICUS ROCK   0800           20/ 22/ 26 1001.2F
PORTLAND WX BUOY 0750   50 54   10/ 21/ 23 1003.3R   8/10
WELLS            0700   48 50  360/ 16/ 21 1003.2F
ISLE OF SHOALS   0800   49      10/ 22/ 25 1003.2R
JEFFREYS LEDGE   0721      55                N/A    14/11
CASHES LEDGE BUO 0750   53 55   20/ 23/ 29  999.9F  12/10
$$

.............KEY..............
   WCI - WIND CHILL
   TC  - TEMPERATURE IN CELSIUS
   VSB - VISIBILITY IN MILES
   HX  - HEAT INDEX
   FAIR- INDICATES FEW OR NO CLOUDS BELOW 12,000 FT, WITH NO
         SIGNIFICANT WEATHER AND/OR OBSTRUCTIONS TO VISIBILITY.






U.S. Dept. of Commerce
NOAA National Weather Service
1325 East West Highway
Silver Spring, MD 20910
E-mail: w-nws.webmaster@noaa.gov
Page last modified: May 16, 2007
NATIONAL WEATHER SERVICE: for Safety, for Work, for Fun - FOR LIFE